Overview Statistics Trail Chart Weather Telemetry Raw packets
 

This is the latest recevied weather packets stored in our database for station/object SV1JSO-13. If no packets are shown the sender has not sent any weather packets the latest 10 day(s).

<< 78 79 80 81 82 83 84 >>
Time Temp. Humidity Pressure Rain* Wind** Luminosity Snow
1788098700 31.11° C 38% 1008.4 hPa 0 mm - 387 W/m² -
1788098400 31.11° C 38% 1008.4 hPa 0 mm - 408 W/m² -
1788098106 31.67° C 38% 1008.4 hPa 0 mm - 427 W/m² -
1788097801 31.67° C 38% 1008.3 hPa 0 mm - 438 W/m² -
1788097500 31.67° C 37% 1008.5 hPa 0 mm - 448 W/m² -
1788097200 31.67° C 37% 1008.4 hPa 0 mm - 518 W/m² -
1788096900 31.67° C 37% 1008.4 hPa 0 mm - 517 W/m² -
1788096600 32.22° C 36% 1008.4 hPa 0 mm - 553 W/m² -
1788096300 31.67° C 36% 1008.3 hPa 0 mm - 598 W/m² -
1788096008 31.67° C 38% 1008.5 hPa 0 mm - 462 W/m² -
1788095700 30.56° C 39% 1008.4 hPa 0 mm - 360 W/m² -
1788095400 30.56° C 46% 1008.4 hPa 0 mm - 233 W/m² -
1788095100 30° C 46% 1008.3 hPa 0 mm - 236 W/m² -
1788094800 30° C 47% 1008.3 hPa 0 mm - 254 W/m² -
1788094500 30° C 47% 1008.4 hPa 0 mm - 281 W/m² -
1788094200 30.56° C 46% 1008.6 hPa 0 mm - 314 W/m² -
1788093900 30° C 44% 1008.4 hPa 0 mm - 352 W/m² -
1788093600 30.56° C 43% 1008.4 hPa 0 mm - 501 W/m² -
1788093300 30.56° C 44% 1008.6 hPa 0 mm - 319 W/m² -
1788093000 30.56° C 42% 1008.6 hPa 0 mm - 297 W/m² -
1788092700 31.11° C 42% 1008.8 hPa 0 mm - 762 W/m² -
1788092400 30.56° C 42% 1008.9 hPa 0 mm - 699 W/m² -
1788092100 30.56° C 41% 1008.9 hPa 0 mm - 685 W/m² -
1788091800 30.56° C 41% 1009.1 hPa 0 mm - 677 W/m² -
1788091500 31.11° C 42% 1009.1 hPa 0 mm - 676 W/m² -

* Rain latest hour (hover to see other rain measurements)
** Current wind speed in m/s (hover to see current wind gust speed)